カタログに戻る

STARLINK-34258

運用中通信VLEO
NORAD 64211·PAYLOAD·🇺🇸 United States

打ち上げ May 31, 2025 から Vandenberg Space Force Base

Loading…

次のパス (今後24時間)

TLE

最新Source: CelesTrak SupGP

元期: Sep 15, 2026, 02:25 UTC

1 64211C 25117J   26258.10118056 -.00038328  00000+0 -11323-2 0  2580
2 64211  53.1574 236.5923 0001397  96.2241 161.2452 15.34414254    10

AllMySatでSTARLINK-34258をリアルタイム追跡

Download on the App Store